This demonstration page uses our WeatherBlox Daily Observations layout. Learn more.

Left ArrowRight Arrow

Hourly Observations for May 30, 2022

Temp ( °F °C ) Dew Point ( °F °C ) Humidity (%) Winds ( mph kmh ) Pressure ( in mb ) Visibility ( mi km ) Precip ( " mm )
12:56 am 00:56 Mostly Clear 78 25.4 62 16.8 59 59 SSE 21 33 29.44 997 10 16 0.00 0.00
1:56 am 01:56 Clear 77 25 62 16.9 61 61 SSE 18 30 29.44 997 10 16 0.00 0.00
2:56 am 02:56 undefined 77 24.9 63 17.3 63 63 S 16 26 29.43 997 10 16 0.00 0.00
3:56 am 03:56 Mostly Cloudy 77 24.9 65 18.1 66 66 S 21 33 29.44 997 10 16 0.00 0.00
4:07 am 04:07 Cloudy with Thunderstorms 77 25 64 18 65 65 S 23 37 29.44 997 10 16 0.00 0.00
4:45 am 04:45 Windy with Storms Likely 77 25 66 19 69 69 SSE 23 37 29.43 997 6 10 0.00 0.00
4:56 am 04:56 Mostly Clear with Thunderstorms 75 23.7 67 19.4 77 77 S 18 30 29.43 997 6 10 0.01 0.25
5:56 am 05:56 Cloudy with Thunderstorms 73 23 67 19.3 80 80 S 7 11 29.45 997 10 16 0.03 0.76
6:56 am 06:56 Mostly Cloudy with Light Showers 74 23.5 65 18.6 74 74 WSW 5 7 29.41 996 6 10 0.01 0.25
7:44 am 07:44 Partly Cloudy 77 25 64 18 65 65 S 13 20 29.46 998 10 16 0.00 0.00
7:56 am 07:56 Mostly Cloudy 76 24.5 65 18.4 69 69 S 9 15 29.46 998 10 16 0.00 0.00
8:56 am 08:56 Mostly Cloudy 76 24.6 65 18.5 69 69 S 17 28 29.45 997 10 16 0.00 0.00
9:56 am 09:56 Mostly Sunny 77 25.1 65 18.5 67 67 S 16 26 29.45 997 10 16 0.00 0.00
10:56 am 10:56 Mostly Sunny 81 27 64 18 58 58 S 21 33 29.44 997 10 16 0.00 0.00
11:56 am 11:56 Mostly Cloudy 82 27.5 64 17.6 55 55 S 23 37 29.43 997 10 16 0.00 0.00
12:16 pm 12:16 Mostly Cloudy 82 28 64 18 55 55 S 26 43 29.43 997 10 16 0.00 0.00
12:56 pm 12:56 Mostly Cloudy 82 27.9 63 17.1 52 52 SSW 29 46 29.43 997 10 16 0.00 0.00
1:56 pm 13:56 Mostly Cloudy 84 29.1 62 16.6 47 47 S 30 48 29.43 997 10 16 0.00 0.00
2:56 pm 14:56 Partly Cloudy 86 30.2 62 16.9 45 45 S 29 46 29.43 997 10 16 0.00 0.00
3:56 pm 15:56 Mostly Sunny 88 31 54 12.3 32 32 SSW 25 41 29.44 997 10 16 0.00 0.00
4:56 pm 16:56 Sunny 88 31 43 6.1 21 21 SSW 24 39 29.48 998 10 16 0.00 0.00
5:56 pm 17:56 Sunny 87 30.8 44 6.6 22 22 SSW 20 31 29.50 999 10 16 0.00 0.00
6:56 pm 18:56 Sunny 87 30.3 46 7.5 24 24 SSW 13 20 29.50 999 10 16 0.00 0.00
7:56 pm 19:56 Sunny 83 28.5 48 8.7 29 29 S 10 17 29.53 1000 10 16 0.00 0.00
8:22 pm 20:22 Mostly Cloudy 82 28 48 9 30 30 WSW 22 35 29.56 1001 10 16 0.00 0.00
8:42 pm 20:42 Windy with Storms Likely 75 24 50 10 41 41 WNW 22 35 29.59 1002 9 14 0.00 0.00
8:56 pm 20:56 Mostly Cloudy with Showers 69 20.7 53 11.9 57 57 WNW 16 26 29.62 1003 5 8 0.00 0.00
9:56 pm 21:56 Mostly Clear 69 20.6 52 11 54 54 W 5 7 29.64 1004 10 16 0.00 0.00
10:56 pm 22:56 Mostly Clear 68 19.9 50 10 53 53 SSW 6 9 29.69 1005 10 16 0.00 0.00
11:56 pm 23:56 Clear 65 18.6 48 9.1 54 54 Calm 29.70 1006 10 16 0.00 0.00

Powered by AerisWeather